STARLINK-11561, 62908

Orbit data source: Space-Track

STARLINK-11561, 62908 is a payload satellite owned by SpaceX/Seattle (US) in LEO that was launched on Sat, 08 Feb 2025 UTC via an FALCON 9 launch vehicle from the Air Force Eastern Test Range (AFETR). Payload-class satellites include a variety of spacecraft equipped with specific instruments for various scientific and technological missions. These include communications satellites like Starlink; space stations such as the ISS; scientific satellites like the Hubble; Earth observation satellites from companies like Planet Labs, Umbra, and HawkEye 360; GPS; miniature CubeSats for education and research; and military/defense satellites.

Loading next visibility...
Identifier
62908, 2025-027B
Orbit
LEO
Last TLE update
8 hours ago
Origin
Manufacturer
SpaceX/Seattle
Mission
Operational Commercial Communications
Bus & Motor
STARLINK V2M, Unknown motor
Mass
730 kg wet, ~700 kg dry
Launch date (UTC)
2025-02-08 (3 months ago)
Launch vehicle
FALCON 9
Launch site
Air Force Eastern Test Range (AFETR)
Object type
Payload
Rocket body
Debris
Shape & HBR
Box + 2 Pan, 29 m
Radar Cross Section
36.964 m², Large (>1 m²)

Expand to show TLE details & history

TLE from 8 hours ago
0 STARLINK-11561
1 62908U 25027B   25128.92661021  .00000477  00000-0  72124-5 0  9995
2 62908  43.0014  24.4246 0001245 257.3430 102.7298 15.70834944 15221
Epoch: 2025-05-08T22:14Z
Definitive object data (Epoch: 2025-05-08T22:14:19.122Z)
Latitude
-0.00004°
Longitude
-176.14521°
Altitude
356.466 km
Speed
7.697 km/s
True Right ascension
01h 37m 41s
True Declination
0° 00' 00"
Sunlit
Object was in daylight at TLE epoch
Visualization TLE readout
Latitude
-5.70121°
Longitude
175.83562°
Altitude
357.227 km
Speed
7.696 km/s
Apparent Right ascension
01h 28m 01s
Apparent Declination
-22° 20' 17"
Sunlit
Object is in daylight
Visualization observer readout
Local Sidereal Time
13:58:43
Azimuth
22.607° NE
Elevation
-71.254°
Doppler factor
1
Orbital elements
Apogee altitude
359.33 km
Perigee altitude
357.652 km
Semi-major axis
6,736.628 km
Eccentricity
0.0001245
Inclination
43.0014°
RAAN
24.4246°
Arg. of periapsis
257.343°
True anomaly
102.74372°
Mean anomaly
102.7298°
Eccentric anomaly
102.73676°
Mean motion
3.92536 °/min
BSTAR
0.0000072124
Orbital period
91.71 mins
Loading maneuver chart data...
Loading SW <> Apogee altitude chart data...
Loading historical data...
Loading historical data...
Loading historical data...
Loading historical data...
Loading historical data...
Loading historical data...
Loading historical data...

STARLINK-11561 Visibility forecast

Observer location: undefined°, undefined°

Span
Click to sort rows by Start time (UTC) header in descending order
Start Az.
Max El. time (UTC)
Max El. Az.
Max El.
End time (UTC)
End Az.
4 mins2025-05-09 19:47:59.869Z194.608° SSW2025-05-09 19:49:59.869Z148.429° SSE18.978°2025-05-09 19:51:59.869Z101.129° ESE
4 mins2025-05-09 21:23:59.869Z256.515° W2025-05-09 21:25:59.869Z19.993° NNE44.408°2025-05-09 21:27:59.869Z69.645° E
4 mins2025-05-09 23:00:59.869Z305.244° NW2025-05-09 23:01:59.869Z347.506° N33.923°2025-05-09 23:04:59.869Z74.156° E
4 mins2025-05-10 00:36:59.869Z291.238° WNW2025-05-10 00:37:59.869Z299.774° NW40.543°2025-05-10 00:40:59.869Z105.538° ESE
|